Cartersville, GA

7:01 AM EDT on March 27, 2017 (GMT -0400)
Cartersville

Weather History for KVPC - April, 2014

Change the Weather History Date:

Thursday, April 10, 2014

  Actual Average Record
Temperature  
Mean Temperature 55 °F 58 °F  
Max Temperature 75 °F 71 °F 87 °F (2001)
Min Temperature 34 °F 44 °F 30 °F (2007)
Degree Days  
Heating Degree Days 10 8  
Month to date heating degree days 70 88  
Since 1 July heating degree days 3334 3116  
Cooling Degree Days 0 0  
Month to date cooling degree days 3 0  
Year to date cooling degree days 3 4  
Growing Degree Days 4 (Base 50)    
Moisture  
Dew Point 37 °F    
Average Humidity 60    
Maximum Humidity 92    
Minimum Humidity 27    
Precipitation  
Precipitation 0.00 in 0.12 in 0.72 in (2015)
Month to date precipitation 3.43 1.20  
Year to date precipitation 13.86 15.42  
Snow  
Snow 0.00 in - - ()
Month to date snowfall 0.0  
Since 1 July snowfall 0.0  
Snow Depth -    
Sea Level Pressure  
Sea Level Pressure 30.19 in    
Wind  
Wind Speed 4 mph (SSE)    
Max Wind Speed 15 mph    
Max Gust Speed 19 mph    
Visibility 10 miles    
Events      
T = Trace of Precipitation, MM = Missing Value Source: NWS Daily Summary

Daily Weather History Graph

Daily Weather History Graph

Search for Another Location

Airport or City:

Trip Planner

Search our weather history database for the weather conditions in past years. The results will help you decide how hot, cold, wet, or windy it might be!

Date:

Astronomy

Apr. 10, 2014 Rise Set
Actual Time 7:14 AM EDT 8:07 PM EDT
Civil Twilight 6:49 AM EDT 8:32 PM EDT
Nautical Twilight 6:19 AM EDT 9:02 PM EDT
Astronomical Twilight 5:48 AM EDT 9:34 PM EDT
Moon 4:01 PM EDT (4/10) 4:25 AM EDT (4/10)
Length of Visible Light 13h 43m
Length of Day
12h 52m
Waxing Gibbous, 79% of the Moon is Illuminated
Apr 10
Waxing Gibbous
Apr 15
Full
Apr 22
Last Quarter
Apr 29
New
May 6
First Quarter

Hourly Weather History & Observations

Time (EDT) Temp. Dew Point Humidity Pressure Visibility Wind Dir Wind Speed Gust Speed Precip Events Conditions
12:53 AM 42.1 °F 37.0 °F 82% 30.16 in 10.0 mi Calm Calm - N/A   Clear
1:53 AM 41.0 °F 37.0 °F 86% 30.16 in 10.0 mi Calm Calm - N/A   Clear
2:53 AM 39.0 °F 36.0 °F 89% 30.16 in 10.0 mi Calm Calm - N/A   Clear
3:53 AM 37.9 °F 36.0 °F 93% 30.17 in 10.0 mi Calm Calm - N/A   Clear
4:53 AM 37.9 °F 35.1 °F 89% 30.18 in 10.0 mi Calm Calm - N/A   Clear
5:53 AM 36.0 °F 34.0 °F 93% 30.20 in 10.0 mi Calm Calm - N/A   Clear
6:53 AM 36.0 °F 34.0 °F 93% 30.23 in 10.0 mi Calm Calm - N/A   Clear
7:53 AM 37.0 °F 35.1 °F 93% 30.25 in 10.0 mi Calm Calm - N/A   Clear
8:53 AM 48.0 °F 42.1 °F 80% 30.26 in 10.0 mi Calm Calm - N/A   Clear
10:53 AM 64.0 °F 37.9 °F 38% 30.26 in 10.0 mi Variable 4.6 mph - N/A   Scattered Clouds
11:16 AM 64.9 °F 36.0 °F 34% 30.28 in 10.0 mi South 5.8 mph - N/A   Mostly Cloudy
11:25 AM 66.0 °F 37.0 °F 34% 30.27 in 10.0 mi Variable 6.9 mph - N/A   Mostly Cloudy
11:53 AM 68.0 °F 36.0 °F 31% 30.25 in 10.0 mi Variable 4.6 mph - N/A   Mostly Cloudy
12:53 PM 69.1 °F 36.0 °F 30% 30.22 in 10.0 mi South 11.5 mph 18.4 mph N/A   Partly Cloudy
1:53 PM 72.0 °F 35.1 °F 26% 30.20 in 10.0 mi Variable 6.9 mph - N/A   Clear
2:53 PM 73.0 °F 37.9 °F 28% 30.18 in 10.0 mi Variable 6.9 mph - N/A   Clear
3:53 PM 73.9 °F 37.0 °F 26% 30.15 in 10.0 mi Variable 4.6 mph - N/A   Clear
4:53 PM 73.9 °F 37.0 °F 26% 30.13 in 10.0 mi SW 9.2 mph - N/A   Clear
5:53 PM 73.9 °F 37.0 °F 26% 30.12 in 10.0 mi ESE 4.6 mph - N/A   Clear
6:53 PM 73.0 °F 37.0 °F 27% 30.13 in 10.0 mi SSE 6.9 mph - N/A   Clear
7:53 PM 66.0 °F 39.0 °F 37% 30.13 in 10.0 mi South 5.8 mph - N/A   Clear
8:53 PM 59.0 °F 41.0 °F 51% 30.14 in 10.0 mi SSE 5.8 mph - N/A   Clear
9:53 PM 59.0 °F 39.0 °F 48% 30.17 in 10.0 mi South 5.8 mph - N/A   Clear
10:53 PM 55.9 °F 39.9 °F 55% 30.18 in 10.0 mi South 5.8 mph - N/A   Clear
11:53 PM 57.9 °F 39.9 °F 51% 30.17 in 10.0 mi SSE 6.9 mph - N/A   Clear